Location: ???????
(55.3754°N, 39.3545°E)
Time: 01:37:26
(UTC+00:00)

USA 32 - Pass Details

Date: 14 April 2026
Orbit: 775 x 779 km, 85.0° (Epoch: 20 May)

Event Time Altitude Azimuth Distance (km) Brightness Sun altitude
Exits shadow 18:10:47 - 184° (S) 2,875 6.6 -13.7°
Reaches altitude 10° 18:12:10 10° 184° (S) 2,328 6.1 -13.9°
Maximum altitude 18:17:24 87° 97° (E) 789 4.0 -14.4°
Drops below altitude 10° 18:22:41 10° 8° (N) 2,347 7.0 -15.0°
Sets 18:25:03 0° 8° (N) 3,279 7.8 -15.2°
